Theta_e
314 313 313 313 313 312 312 312 312 312 312 312 313 313 313 313 314 314 314 315 315 315 315 315 315 315 311 300 304 313 340 338 318 308 305 300 294 294 294 292 294 292 295 297 309 316 317
312 312 313 312 312 311 312 312 312 312 312 312 312 312 312 312 313 313 314 314 314 314 314 315 315 315 305 294 306 315 318 315 311 305 300 298 297 298 295 294 293 296 297 296 304 314 319
312 312 312 312 311 310 311 311 311 311 311 311 311 311 311 312 312 313 314 314 313 313 314 315 315 315 307 299 312 314 308 305 305 304 299 299 300 299 299 298 300 299 296 299 313 317 317
312 311 311 311 310 310 310 310 310 310 310 311 311 311 311 311 311 312 313 313 313 314 315 316 318 312 298 307 310 310 307 309 309 304 305 306 305 301 298 300 300 296 294 290 304 317 316
311 310 310 310 309 309 309 309 310 310 310 310 310 311 310 311 311 312 313 312 313 316 318 321 310 305 296 312 311 315 311 310 312 306 305 311 304 299 299 293 291 292 289 290 298 315 314
310 310 310 309 309 309 309 309 309 309 310 310 310 311 311 310 311 312 311 311 312 316 317 318 315 300 301 304 311 313 311 313 311 307 305 302 298 294 292 291 285 288 289 290 291 303 313
309 309 309 309 309 309 309 309 309 309 309 310 309 310 310 311 311 311 307 305 300 299 307 301 302 300 304 308 312 310 311 310 307 302 295 296 293 289 292 294 295 294 292 292 295 300 301
309 309 309 309 309 309 309 309 309 309 309 309 309 309 310 310 311 310 302 299 303 301 296 303 305 306 309 307 304 308 311 304 302 297 296 294 290 296 298 296 295 294 292 292 296 299 297
308 308 309 309 309 308 308 308 309 310 310 310 309 309 310 310 309 303 299 301 306 301 294 301 303 304 304 306 302 304 308 304 300 297 296 292 296 300 299 296 295 293 291 292 294 303 310
308 308 308 308 308 308 308 308 308 309 309 309 309 309 309 309 299 297 301 305 305 303 290 297 303 305 305 306 302 310 310 306 300 298 297 295 300 300 297 296 296 291 298 298 296 296 293
308 308 308 308 308 308 308 308 308 309 309 309 309 309 309 308 297 296 303 304 305 304 281 299 302 308 303 300 303 305 310 305 300 300 298 296 297 297 296 298 299 296 300 297 296 296 295
308 308 308 308 308 307 308 308 308 309 309 308 308 309 308 303 297 301 304 303 302 290 281 297 300 299 297 300 301 304 305 307 306 300 300 298 302 301 300 302 301 302 297 294 293 294 289
307 307 308 308 308 308 308 308 308 308 308 308 307 307 304 305 300 302 304 300 287 281 296 295 295 298 296 297 300 301 300 298 296 291 292 297 299 301 304 298 299 295 289 284 284 284 285
307 307 307 308 308 308 308 308 308 307 307 307 306 305 304 305 302 305 299 291 280 291 293 298 298 297 295 297 297 302 298 295 299 297 293 291 291 299 302 299 295 293 291 285 281 281 286
306 306 307 308 307 308 307 307 307 307 307 306 304 297 300 306 307 304 292 283 285 292 297 296 298 292 293 300 296 299 297 297 299 298 292 290 292 302 302 303 300 294 290 292 287 288 287
306 306 306 307 308 308 308 307 307 307 306 305 294 296 302 309 310 302 289 287 290 298 301 301 295 298 294 295 295 295 296 303 301 305 300 296 290 300 302 302 300 297 298 290 288 283 282
305 306 306 306 307 307 308 307 307 307 306 304 295 293 303 309 312 301 288 290 296 304 307 303 299 297 297 297 298 294 296 302 308 306 304 300 292 297 299 296 295 294 292 292 290 289 285
305 305 305 306 306 306 307 307 307 306 305 298 292 288 301 306 297 293 290 293 300 301 305 304 303 302 299 300 297 295 297 302 308 309 303 303 294 289 294 300 302 297 295 293 288 287 289
304 305 305 305 305 306 307 307 307 306 305 297 289 292 304 302 288 286 291 294 298 297 297 301 302 304 303 299 294 300 302 308 308 307 304 305 294 290 293 296 299 298 298 296 293 291 289
303 304 304 305 305 306 306 307 307 306 305 295 293 288 291 293 290 288 288 290 292 298 300 305 304 303 298 296 299 297 301 306 307 309 316 309 297 294 290 294 299 298 300 299 295 288 290
303 303 303 304 304 305 305 306 307 306 305 295 291 287 288 284 286 286 287 289 290 290 295 296 295 300 297 290 293 295 300 300 304 311 307 304 297 300 299 301 301 300 300 300 297 295 292
302 302 303 304 304 305 305 306 306 306 304 294 289 287 289 286 287 286 287 286 289 291 292 291 291 294 296 291 294 290 293 295 297 300 299 303 295 300 296 300 300 298 300 301 301 300 298
302 302 303 303 303 304 304 305 306 306 300 290 291 292 288 286 285 284 285 287 290 290 293 295 294 292 293 295 294 294 294 295 299 297 295 297 297 296 290 299 298 293 297 299 302 301 301
304 303 303 303 303 303 304 304 305 305 301 290 289 289 285 282 286 286 289 289 289 289 287 291 292 289 293 295 293 295 294 296 299 300 301 295 296 296 291 295 286 297 304 305 301 302 304
304 303 303 303 303 303 303 304 305 304 305 293 291 289 287 283 287 287 288 287 287 287 287 289 293 293 291 289 289 289 290 292 296 300 301 300 296 292 287 289 295 298 302 303 300 298 304
304 303 303 303 303 303 303 303 304 304 305 293 291 291 289 284 282 290 287 287 282 281 285 289 292 291 289 290 288 284 283 289 289 293 303 300 299 292 290 286 286 297 306 310 308 293 304
303 303 303 303 302 303 303 304 304 303 304 295 292 291 289 286 288 288 284 284 286 284 282 285 286 285 289 286 285 284 285 292 285 287 290 292 292 292 289 288 293 304 307 310 294 295 305
302 303 303 302 302 303 303 304 304 303 303 296 291 292 290 287 287 290 292 286 286 284 280 283 283 284 283 282 284 286 287 291 289 293 292 291 289 289 292 290 288 308 305 301 302 302 307
302 303 302 302 302 303 303 303 303 303 303 299 289 294 294 287 286 291 293 294 292 291 285 283 282 283 285 282 283 284 283 288 288 285 295 288 292 290 293 293 302 305 305 309 307 305 308
Wind_Speed
17 18 19 19 19 19 19 19 19 20 21 21 22 23 23 23 22 22 21 22 21 20 18 15 11 8 4 2 12 6 10 11 8 7 6 4 4 4 2 3 3 5 4 7 8 13 10
17 18 18 18 19 19 18 19 20 20 21 21 21 23 23 24 23 23 22 21 21 19 17 12 7 2 2 4 6 4 9 8 4 6 6 7 6 6 2 2 2 3 4 1 8 8 8
17 17 18 17 18 18 19 20 20 21 21 22 23 24 25 25 25 24 23 22 20 20 16 9 4 3 1 16 3 5 3 5 7 5 5 5 5 3 2 6 4 3 5 5 2 7 7
17 16 17 17 17 18 19 20 21 22 22 23 23 23 25 26 26 26 24 24 23 19 10 5 7 2 9 5 3 6 3 6 5 6 4 5 5 2 3 4 7 4 5 3 3 6 6
15 16 16 16 17 19 20 21 21 22 23 24 24 23 26 26 26 27 25 25 20 4 4 9 5 2 11 5 3 7 7 7 5 3 5 2 5 4 4 3 6 7 2 2 1 5 7
15 15 16 17 18 20 21 21 22 23 24 25 24 24 25 27 27 26 25 19 6 5 3 4 3 3 6 2 2 3 6 5 4 2 1 3 5 3 4 5 4 2 3 2 5 8 9
15 15 17 18 19 20 21 22 23 24 24 25 26 26 26 26 26 23 14 2 5 3 2 7 7 7 10 7 6 0 4 6 2 5 3 2 4 4 7 6 5 1 2 3 5 8 7
14 16 17 18 20 21 21 22 23 24 25 25 26 27 27 27 25 23 1 4 3 3 12 12 19 15 17 5 7 9 4 6 6 7 2 5 5 10 5 3 4 3 3 8 10 4 10
14 16 17 18 20 21 23 24 24 24 25 26 26 26 27 28 28 3 2 5 5 0 3 9 5 4 6 11 9 10 6 4 4 5 4 7 9 4 4 5 4 4 4 6 9 5 5
15 16 17 19 19 21 24 25 27 27 27 27 27 26 25 29 3 5 5 3 4 3 6 9 6 5 2 4 5 9 8 6 1 10 6 6 6 7 4 6 6 5 8 10 8 4 6
15 17 18 19 21 23 24 25 26 27 27 27 26 25 22 12 5 2 5 9 8 4 5 11 6 2 2 3 7 3 5 5 9 7 7 10 2 1 4 8 7 12 6 10 7 5 4
15 17 18 19 21 23 23 24 26 27 29 30 30 26 21 3 1 8 9 8 4 7 2 9 4 10 4 3 5 6 2 4 5 4 2 8 1 4 7 5 7 7 6 6 6 4 2
15 16 17 19 21 22 23 25 27 29 31 32 32 29 10 2 3 5 5 5 7 5 6 7 7 9 5 8 8 1 2 1 6 2 5 3 8 3 5 6 1 3 6 3 3 3 7
15 16 17 18 21 21 24 27 28 29 32 34 34 23 4 5 3 7 4 7 4 1 2 4 7 9 3 10 7 8 7 2 1 1 2 4 10 8 5 8 7 6 8 7 7 5 6
14 15 17 19 21 22 23 26 29 31 32 34 25 4 2 4 4 1 7 6 5 2 3 6 8 4 5 7 3 8 5 1 3 4 6 4 9 10 4 7 7 4 4 4 6 2 3
14 15 17 19 20 22 23 25 28 31 32 31 4 5 4 6 3 6 7 2 2 3 6 3 4 3 4 6 8 6 5 1 6 3 4 4 7 8 12 3 5 8 5 2 3 5 5
13 15 16 18 19 21 23 24 26 30 32 24 4 4 4 6 4 6 4 4 4 4 6 4 3 4 3 3 3 4 4 3 12 7 3 4 3 9 4 5 9 1 2 1 4 5 7
12 14 16 18 19 21 22 23 24 26 31 9 4 3 4 5 5 2 1 4 5 5 4 3 2 3 2 4 4 3 4 4 14 10 3 2 2 6 8 9 5 4 6 7 6 6 2
10 12 15 17 19 19 21 23 25 25 22 4 3 4 5 3 3 3 6 5 4 6 6 4 4 4 2 2 5 4 5 6 12 5 5 4 2 5 15 9 9 5 5 4 4 3 6
9 11 13 15 17 18 19 22 25 26 24 3 3 5 6 6 3 3 4 4 6 9 3 5 2 2 2 1 3 4 4 4 9 6 5 1 1 6 6 6 7 13 23 5 6 4 5
8 10 11 14 16 17 20 21 24 26 26 3 4 0 2 4 4 3 2 4 4 7 5 8 3 3 2 3 4 1 3 6 6 1 4 4 4 5 8 9 12 19 25 21 7 7 7
7 8 10 12 14 16 18 18 20 26 21 5 2 3 4 0 3 3 5 4 5 5 3 5 3 10 4 3 3 6 4 4 7 3 3 1 4 4 9 14 13 22 33 25 10 4 4
6 7 9 9 12 13 15 17 19 21 12 4 3 2 3 2 2 2 2 3 4 6 4 4 3 5 4 1 9 16 13 12 10 4 2 3 5 4 6 4 6 17 8 13 9 7 11
7 7 7 8 10 11 13 14 16 17 9 2 1 2 3 3 2 1 2 3 3 5 4 8 2 2 5 14 14 9 8 13 14 16 14 7 4 4 2 3 6 11 19 18 15 10 7
6 6 7 7 9 10 10 11 12 13 12 2 1 2 2 2 2 5 4 2 5 5 4 6 4 2 7 6 4 6 5 6 6 7 9 16 6 3 4 4 7 7 10 4 5 3 11
8 6 6 7 8 9 9 10 10 10 12 3 1 1 2 2 3 2 1 2 2 3 5 5 8 8 4 1 1 5 5 2 5 8 3 7 8 3 3 4 9 5 1 10 11 5 9
7 6 6 7 8 8 9 9 9 9 10 3 2 1 2 2 4 3 3 3 2 1 3 5 7 8 4 2 2 4 5 4 4 5 3 3 1 8 3 5 7 6 7 10 5 7 7
10 10 7 7 8 8 8 8 8 7 7 4 3 2 3 2 6 5 3 4 1 2 3 4 6 3 4 4 2 3 2 3 3 4 4 3 2 4 4 4 7 3 3 2 5 4 4
10 9 6 7 8 9 7 7 7 7 7 4 1 2 1 3 7 4 8 9 9 16 6 2 4 0 4 2 2 3 4 4 1 4 2 3 5 4 6 6 3 1 5 5 6 7 6
Wind_Direction
30 27 23 19 14 7 1 353 353 352 349 346 342 337 334 328 325 322 318 313 308 306 308 310 311 315 302 21 251 290 70 114 118 142 161 154 159 139 173 206 203 199 245 152 178 163 167
30 25 21 16 10 2 356 353 352 349 345 342 338 333 329 325 323 320 314 307 302 303 304 301 298 273 227 272 249 288 122 129 154 142 162 153 192 205 182 246 174 209 248 252 183 196 145
28 24 19 13 5 358 354 353 350 347 344 340 336 332 328 325 322 320 314 307 305 304 296 283 229 208 231 238 112 91 158 170 164 185 166 194 191 39 55 312 248 259 319 57 359 129 142
25 20 14 7 1 357 354 352 349 346 342 338 334 328 326 324 321 319 315 313 310 304 280 216 174 189 248 248 277 257 216 296 190 200 259 176 162 173 167 255 356 7 49 53 239 145 164
19 17 10 2 1 357 354 351 347 343 340 337 332 327 324 323 322 320 317 313 313 337 135 146 125 157 268 314 247 243 162 225 131 184 270 278 146 181 40 64 12 7 248 132 155 235 153
13 9 4 360 359 356 352 349 345 342 338 335 332 327 324 323 322 321 319 308 268 112 164 197 254 356 280 258 294 204 221 160 213 20 175 159 58 68 40 72 233 248 6 344 122 213 180
9 4 1 358 356 354 349 346 343 340 336 333 333 328 326 324 324 325 334 24 11 350 187 226 231 248 296 272 281 288 186 118 149 65 216 3 75 219 240 204 192 159 215 281 261 171 141
6 2 359 356 354 351 347 344 341 337 334 332 332 330 327 325 324 323 291 65 137 266 297 238 245 247 252 40 324 300 141 137 136 202 102 11 250 234 214 190 225 213 281 277 282 272 179
3 360 357 354 352 349 348 345 341 337 335 332 332 332 330 326 321 354 304 226 56 324 269 301 220 228 235 160 213 261 164 158 148 163 164 178 239 135 159 261 236 236 206 258 226 59 53
360 357 355 353 351 351 349 346 343 339 336 333 330 332 334 329 21 325 286 324 325 210 40 289 356 327 83 156 235 210 185 135 212 196 173 223 262 233 213 245 149 284 219 252 266 129 226
358 358 355 353 352 350 347 344 341 337 334 331 328 331 334 332 299 308 295 339 318 66 33 331 359 250 74 179 291 274 179 97 195 194 120 242 231 149 236 223 156 237 265 231 228 196 129
358 357 355 354 352 349 346 344 341 338 335 332 331 334 337 85 174 249 308 317 51 44 346 336 52 329 8 291 251 328 139 83 165 192 264 226 326 165 232 265 174 255 297 40 40 90 75
355 354 354 352 352 349 347 346 345 341 336 333 333 327 318 221 249 310 310 37 40 100 334 357 342 335 328 340 343 131 178 167 182 134 268 291 260 242 216 287 301 125 73 309 341 8 213
352 349 350 352 353 351 351 347 347 344 336 333 330 324 199 229 280 343 39 50 76 333 328 327 331 313 41 5 340 10 355 308 176 311 227 211 303 185 192 191 213 181 166 166 218 190 238
346 348 351 355 354 353 353 350 346 343 338 332 326 330 273 271 193 122 64 61 188 224 322 322 321 11 337 352 322 359 347 0 347 164 204 202 252 260 189 216 147 281 235 217 111 14 95
345 349 352 354 355 353 353 352 347 341 338 335 338 339 311 314 164 56 69 218 242 255 311 316 14 337 337 350 1 7 326 339 347 57 167 295 294 248 273 133 245 173 185 296 352 154 221
350 351 354 356 355 354 352 350 349 342 340 333 22 31 286 339 41 46 102 245 292 335 16 357 330 292 12 23 276 299 279 58 349 306 356 4 125 306 178 197 226 227 245 100 137 150 174
348 351 353 355 353 353 350 347 348 350 344 36 2 40 308 349 49 21 30 313 288 331 357 339 55 50 24 309 301 303 40 349 342 326 16 137 105 299 250 259 236 184 236 168 152 249 168
340 346 350 354 352 351 350 348 346 352 358 330 15 275 320 40 94 355 312 312 330 345 336 341 42 39 13 310 323 35 346 308 335 354 15 335 358 348 338 1 10 333 229 155 124 83 196
334 347 345 350 353 350 352 351 347 349 351 103 35 356 335 32 23 91 0 339 343 335 82 26 53 69 35 344 290 304 334 321 323 356 359 142 124 131 207 253 307 301 306 248 144 129 187
330 339 346 349 352 353 354 355 351 348 347 91 23 1 177 335 351 359 270 351 3 355 4 25 7 56 318 293 318 209 263 301 295 302 352 84 217 207 227 288 313 308 309 281 205 183 169
318 333 341 347 351 354 355 358 357 352 346 72 66 26 358 226 300 322 360 18 30 329 303 347 35 306 252 257 90 296 338 231 232 306 3 244 261 234 254 282 285 308 307 282 224 161 118
293 316 329 342 348 354 355 360 5 6 15 51 328 354 97 312 353 99 84 315 45 345 293 103 340 345 305 14 316 278 249 248 247 249 218 256 199 170 266 271 337 312 292 303 223 200 144
275 297 322 336 341 349 353 357 6 12 48 120 276 97 70 286 327 95 349 288 353 304 266 300 9 353 288 326 304 270 244 240 243 235 208 213 197 170 222 26 225 220 310 310 251 228 189
268 276 306 322 329 340 345 347 358 9 17 69 317 72 97 279 246 289 354 306 307 297 271 270 297 235 302 292 302 315 318 318 268 229 215 209 169 244 168 195 319 287 286 323 339 360 29
252 263 283 305 316 328 331 336 349 2 8 73 330 160 100 109 254 46 308 317 315 316 325 289 334 315 323 254 251 224 230 271 277 315 75 140 215 175 157 205 220 214 264 295 285 275 8
251 254 276 287 305 314 320 326 340 355 3 77 282 48 116 192 262 126 199 209 255 38 271 302 330 322 355 354 243 219 234 236 266 245 297 318 231 202 183 216 283 283 336 322 244 268 315
270 264 263 276 293 300 309 319 320 336 358 65 267 328 96 302 279 214 213 188 86 132 174 287 355 339 337 21 340 307 295 282 317 287 287 224 229 223 157 195 254 153 31 267 250 284 269
258 266 253 274 280 290 298 314 327 331 343 79 326 299 129 167 248 220 224 236 217 221 159 217 213 147 250 10 349 331 321 315 269 289 298 292 214 233 200 230 260 5 202 232 209 247 283